Flag for Iran Weather past 2 weeks in Esfahãn, Iran

Now
88 °F

Sunny.


Feels Like: 84 °F
Forecast: 56 / 90 °F
Wind: No wind

Location: Esfahan

Current Time: Sep 16, 2014 at 2:39:52 PM

Latest Report: Sep 16, 2014 at 2:00 PM


Visibility: 4 mi

Pressure: 29.92 "Hg

Humidity: 8%

Dew point: 19 °F

Location of EsfahãnLocation

Historic Weather in Esfahãn — Graph

°F

Esfahãn temperature yesterday

Maximum temperature yesterday: 93 °F (at 3:00 PM)
Minimum temperature yesterday: 48 °F (at 6:00 AM)
Average temperature yesterday: 75 °F

Past Weeks' High & Low Weather Summary

 TemperatureHumidityPressure
High97 °F (Sep 5, 3:30 PM)42% (Sep 7, 7:30 AM)30.12 "Hg (Sep 7, 7:30 AM)
Low48 °F (Sep 3, 6:00 AM)4% (Sep 10, 5:30 PM)29.77 "Hg (Sep 5, 5:00 PM)
Average77 °F15%29.97 "Hg
* Reported Sep 1 1:30 PM — Sep 16 1:30 PM, Esfahãn, Weather by CustomWeather, © 2014

Note: Actual official high and low records may vary slightly from our data, if they occured in-between our weather recording intervals... More about our weather records

Advertising

Esfahãn weather history for previous 24 hours

 ConditionsComfort  
Time TempWeatherWind HumidityBarometerVisibility
1:30 PM
Sep 16
90 °FSunny.9 mph8%29.92 "Hg4 mi
1:00 PM88 °FHaze.5 mph8%29.95 "Hg3 mi
12:30 PM88 °FHaze.5 mph7%29.95 "Hg3 mi
12:00 PM84 °FHaze.7 mph9%29.98 "Hg3 mi
11:30 AM82 °FHaze.7 mph9%29.98 "Hg3 mi
11:00 AM77 °FSunny.9 mph11%29.98 "Hg3 mi
10:30 AM75 °FSunny.7 mph11%29.98 "Hg3 mi
10:00 AM70 °FSunny.7 mph15%29.98 "Hg3 mi
9:30 AM68 °FSunny.7 mph16%29.98 "Hg3 mi
8:55 AM64 °FSunny.5 mph16%29.98 "Hg2 mi
8:30 AM61 °FSunny.5 mph19%29.98 "Hg2 mi
8:00 AM57 °FClear.5 mph20%29.95 "Hg2 mi
7:30 AM55 °FClear.7 mph24%29.95 "Hg1 mi
7:00 AM54 °FClear.9 mph28%29.95 "Hg1 mi
6:30 AM54 °FClear.9 mph28%29.95 "Hg1 mi
6:00 AM52 °FClear.9 mph26%29.95 "Hg2 mi
5:30 AM48 °FClear.9 mph37%29.92 "Hg10 mi
5:00 AM52 °FClear.9 mph26%29.92 "Hg10 mi
4:30 AM54 °FClear.9 mph24%29.92 "Hg10 mi
4:00 AM54 °FClear.No wind19%29.92 "Hg10 mi
3:30 AM55 °FClear.5 mph15%29.92 "Hg10 mi
3:00 AM59 °FClear.5 mph17%29.92 "Hg10 mi
2:30 AM59 °FClear.7 mph14%29.92 "Hg10 mi
2:00 AM63 °FClear.7 mph12%29.92 "Hg10 mi
1:30 AM63 °FClear.7 mph13%29.92 "Hg10 mi
1:00 AM70 °FClear.9 mph9%29.95 "Hg10 mi
12:30 AM72 °FClear.9 mph8%29.95 "Hg10 mi
12:00 AM72 °FClear.9 mph8%29.95 "Hg10 mi
11:30 PM
Sep 15
72 °FClear.5 mph8%29.92 "Hg10 mi
11:00 PM72 °FClear.9 mph8%29.92 "Hg10 mi
10:30 PM73 °FClear.9 mph8%29.92 "Hg10 mi
10:00 PM75 °FClear.12 mph7%29.92 "Hg10 mi
9:30 PM77 °FClear.9 mph8%29.92 "Hg10 mi
9:00 PM79 °FClear.12 mph7%29.92 "Hg10 mi
8:30 PM81 °FSunny.7 mph7%29.89 "Hg10 mi
8:00 PM82 °FSunny.5 mph6%29.89 "Hg10 mi
7:30 PM84 °FSunny.No wind5%29.89 "Hg10 mi
7:00 PM86 °FSunny.5 mph6%29.89 "Hg10 mi
6:30 PM90 °FSunny.7 mph5%29.89 "Hg10 mi
6:00 PM91 °FSunny.7 mph5%29.89 "Hg10 mi
5:30 PM91 °FSunny.No wind5%29.89 "Hg10 mi
5:00 PM93 °FSunny.No wind4%29.89 "Hg10 mi
4:30 PM91 °FSunny.5 mph5%29.92 "Hg10 mi
4:00 PM91 °FSunny.5 mph5%29.92 "Hg10 mi
3:30 PM93 °FSunny.9 mph4%29.92 "Hg10 mi
3:00 PM93 °FSunny.7 mph5%29.92 "Hg10 mi
2:30 PM91 °FSunny.12 mph5%29.95 "Hg10 mi
2:00 PM90 °FSunny.7 mph5%29.95 "Hg10 mi
Weather by CustomWeather, © 2014

See weather overviewHow to use our weather pages